MST,Max TemperatureF,Mean TemperatureF,Min TemperatureF,Max Dew PointF,MeanDew PointF,Min DewpointF,Max Humidity, Mean Humidity, Min Humidity, Max Sea Level PressureIn, Mean Sea Level PressureIn, Min Sea Level PressureIn, Max VisibilityMiles, Mean VisibilityMiles, Min VisibilityMiles, Max Wind SpeedMPH, Mean Wind SpeedMPH, Max Gust SpeedMPH,PrecipitationIn, CloudCover, Events, WindDirDegrees
2012-11-1,94,80,65,72,67,63,100,63,36,30.01,29.93,29.84,10,9,6,21,2,,0.00,1,,248
2012-11-2,93,78,64,72,66,58,100,64,25,30.01,29.92,29.83,10,10,6,17,2,,0.00,1,,243
2012-11-3,95,80,64,77,66,61,87,63,39,30.01,29.91,29.83,10,10,6,8,2,,0.01,2,,293
2012-11-4,93,78,63,72,67,55,97,64,21,29.99,29.90,29.83,10,9,6,12,3,,0.00,2,,279
2012-11-5,94,80,65,73,67,63,94,62,35,30.01,29.93,29.83,10,9,6,12,2,,0.00,1,,212
2012-11-6,94,81,68,75,70,64,100,67,34,30.06,29.93,29.85,10,9,6,12,2,,0.00,2,,314
2012-11-7,92,80,68,73,69,66,94,66,38,30.01,29.91,29.84,10,9,6,12,2,,0.00,5,,234
2012-11-8,93,80,68,72,69,64,94,63,33,30.01,29.92,29.81,10,10,6,14,3,,0.00,0,,248
2012-11-9,92,78,65,73,69,64,100,69,46,29.97,29.90,29.80,10,9,6,12,3,,0.00,2,,213
2012-11-10,95,81,67,75,70,59,92,65,23,30.01,29.91,29.83,10,10,6,14,4,,0.00,4,,298
2012-11-11,94,76,66,70,64,57,78,66,52,30.02,29.94,29.72,10,9,6,12,4,,0.00,2,,293
2012-11-12,89,72,55,72,58,49,88,55,19,30.05,29.95,29.86,20,13,6,14,2,,0.00,6,,288
2012-11-13,94,77,60,85,59,52,94,58,15,30.08,29.95,29.86,10,9,6,12,1,,0.00,5,,257
2012-11-14,92,76,59,66,60,55,88,56,23,30.07,29.97,29.89,10,9,6,12,2,,0.00,3,,253
2012-11-15,90,78,66,68,61,52,88,58,23,30.04,29.98,29.91,10,9,6,16,4,,0.00,7,,283
2012-11-16,91,75,59,66,62,54,88,59,31,30.07,29.95,29.86,10,9,6,14,3,,0.00,5,,263
2012-11-17,89,74,59,68,64,57,94,62,32,30.11,30.00,29.91,10,10,6,4,2,,0.00,5,,-1
2012-11-18,89,76,63,75,68,63,94,72,39,30.08,30.01,29.94,10,9,6,7,2,,0.00,6,,291
2012-11-19,91,78,64,70,67,62,97,66,30,30.08,29.97,29.88,10,9,6,17,4,,0.00,6,,295
2012-11-20,89,76,62,68,63,59,94,59,30,29.96,29.89,29.83,10,9,6,8,2,,0.00,8,,307
2012-11-21,88,76,65,73,67,62,94,67,46,30.06,29.95,29.85,10,9,6,12,2,,0.00,3,,240
2012-11-22,92,80,67,77,66,58,88,65,37,30.09,29.98,29.90,10,8,6,14,2,,0.00,4,,298
2012-11-23,93,76,59,65,60,54,97,57,26,30.04,29.96,29.87,15,10,6,17,3,,0.00,0,,335
2012-11-24,96,77,58,64,61,52,91,54,15,30.02,29.93,29.85,10,10,6,16,2,,0.00,0,,285
2012-11-25,89,74,58,70,63,57,83,55,26,30.00,29.90,29.82,10,10,6,14,2,,0.00,4,,212
2012-11-26,91,76,61,66,63,54,88,59,19,30.09,29.97,29.84,10,9,6,12,2,,0.00,2,,240
2012-11-27,91,79,67,70,60,53,88,57,20,30.12,30.01,29.94,10,9,6,12,3,,0.00,4,,326
2012-11-28,89,73,57,61,56,47,100,53,15,30.15,30.04,29.98,10,10,6,14,4,,0.00,3,,323
2012-11-29,87,70,54,61,58,52,82,54,25,30.09,30.00,29.90,10,10,6,14,3,,0.00,3,,321
2012-11-30,91,73,55,70,60,54,94,60,30,30.03,29.97,29.90,10,10,6,14,2,,0.00,2,,302